Theta_e
325 324 324 324 324 324 323 322 322 322 323 321 321 320 318 316 314 313 311 310 309 307
312 321 322 321 321 320 319 316 318 318 315 315 315 314 312 310 306 305 304 302 303 299
303 314 318 318 315 314 313 311 310 308 307 305 304 305 305 302 300 298 297 295 294 294
308 311 313 312 311 308 307 305 303 302 300 299 299 298 296 295 293 292 291 291 291 290
302 304 304 303 302 302 300 299 297 295 294 293 292 292 292 290 290 289 289 288 289 288
297 299 298 297 296 295 294 293 292 292 291 290 289 289 289 289 288 287 287 287 287 287
294 294 294 293 292 291 291 290 290 289 288 287 287 287 287 287 286 286 286 286 286 286
290 290 290 289 289 288 288 288 288 287 287 286 286 285 286 286 286 285 285 285 285 285
288 288 287 287 286 286 286 286 286 286 286 287 286 289 288 286 285 284 284 283 284 284
286 285 285 285 285 284 284 284 284 285 286 286 287 289 288 286 284 284 284 284 284 283
285 284 284 284 283 283 283 283 283 283 285 285 287 288 287 285 284 284 284 284 284 284
284 283 283 282 282 281 282 281 281 282 283 284 285 288 287 285 284 284 284 284 284 283
284 284 283 282 281 280 281 280 281 280 280 279 283 288 287 285 284 283 283 283 283 283
282 282 281 280 280 280 280 279 278 278 277 278 280 284 287 286 283 283 282 282 281 282
Wind_Speed
9 7 7 7 6 5 4 5 5 5 4 4 4 4 5 3 3 4 4 5 5 5
4 6 7 6 5 4 4 4 6 4 6 4 5 5 7 5 6 6 6 6 8 6
6 5 5 5 6 7 6 5 9 6 8 7 7 7 8 7 6 9 5 6 8 7
4 5 5 5 6 7 8 8 9 8 8 7 8 8 8 8 7 10 8 7 8 8
4 6 7 7 7 7 8 7 10 9 9 8 7 7 9 8 7 9 8 8 7 7
5 7 8 8 8 7 8 8 10 10 9 9 7 8 8 8 9 8 7 6 7 7
5 6 8 8 8 8 7 10 10 9 8 8 8 8 8 8 9 8 7 7 7 7
6 7 8 8 8 7 8 8 9 10 8 7 7 5 8 7 8 9 8 7 7 7
6 7 8 8 9 8 9 8 9 8 8 7 5 11 12 10 7 7 7 7 6 5
7 8 7 8 9 9 8 7 8 7 8 8 7 13 13 12 6 6 6 6 5 4
8 8 8 8 8 7 7 8 7 7 7 8 7 13 13 11 6 5 5 5 4 3
9 10 9 9 8 6 7 5 5 5 7 8 7 13 13 9 5 6 5 5 5 3
8 9 9 8 8 3 4 5 5 6 5 5 6 13 12 9 5 5 5 4 4 3
6 8 7 7 3 6 7 7 6 6 4 4 4 6 10 11 4 4 4 3 2 0
Wind_Direction
197 195 204 198 197 200 187 173 158 172 176 171 160 151 144 129 114 120 115 111 95 88
229 180 190 185 184 167 144 134 111 128 111 106 108 110 104 99 98 91 83 68 87 90
206 213 203 164 155 140 126 118 110 115 104 94 86 89 106 100 89 95 77 86 101 98
181 167 143 135 129 124 122 119 109 105 100 100 98 93 85 92 109 102 108 106 107 103
125 117 119 118 115 117 113 107 118 105 102 100 99 103 115 115 118 115 122 116 113 110
118 125 119 115 108 101 112 120 107 111 113 112 116 115 111 115 109 109 113 122 111 114
125 114 115 114 115 107 125 116 108 110 116 116 118 112 113 115 112 106 109 105 104 110
114 108 108 107 106 109 106 107 118 118 109 111 112 124 125 123 117 127 121 110 111 115
124 122 121 120 121 118 113 121 116 114 118 117 106 132 131 126 128 131 127 130 130 129
136 127 131 128 121 122 125 120 117 121 125 124 122 129 128 126 126 129 134 132 127 129
144 138 133 126 127 127 132 134 138 135 136 128 127 132 129 133 130 121 120 120 130 132
150 145 147 145 146 131 132 128 135 138 134 134 138 145 143 132 124 127 132 145 143 135
150 151 154 146 136 113 123 122 133 128 137 135 140 155 155 149 147 145 154 159 153 121
142 141 138 128 122 142 138 131 133 133 147 155 162 170 164 160 164 164 163 170 171 243